User: anonymous   Login
Location: Fremont
(37.5480°N, 121.9880°W)
Time: 23:15:58
(UTC-07:00)
Language:

Cosmos 1766 - Orbit

View from above orbital plane
View from above orbital plane
View from above satellite
View from above satellite

Ground track
Ground track

The orbit data is extracted from the following two-line orbital elements,

1 16881U 86055A   17080.56959266 +.00000447 +00000-0 +25593-4 0  9995
2 16881 082.4996 109.3930 0017276 047.2711 312.9969 15.09972257647052
Epoch (UTC): 21 March 2017 13:40:12
Eccentricity: 0.0017276
inclination: 82.4996°
perigee height: 524 km
apogee height: 548 km
right ascension of ascending node: 109.3930°
argument of perigee: 47.2711°
revolutions per day: 15.09972257
mean anomaly at epoch: 312.9969°
orbit number at epoch: 64705

The dashed part of the orbit path shows where the satellite is in the earth's shadow,  

DLR